This is the latest recevied weather packets stored in our database for station/object VK6DC-13. If no packets are shown the sender has not sent any weather packets the latest 10 day(s).
| Time | Temp. | Humidity | Pressure | Rain* | Wind** | Luminosity | Snow |
|---|---|---|---|---|---|---|---|
| 1787704231 | 13.89° C | 97% | 1018.8 hPa | 0 mm | - | 114 W/m² | - |
| 1787703629 | 13.89° C | 97% | 1018.9 hPa | 0 mm | - | 55 W/m² | - |
| 1787703026 | 13.89° C | 97% | 1019 hPa | 0 mm | - | 73 W/m² | - |
| 1787702423 | 13.33° C | 97% | 1019 hPa | 0 mm | - | 72 W/m² | - |
| 1787701821 | 13.33° C | 97% | 1018.9 hPa | 0 mm | - | 67 W/m² | - |
| 1787701218 | 13.33° C | 97% | 1018.8 hPa | 0 mm | - | 59 W/m² | - |
| 1787700615 | 13.33° C | 97% | 1018.9 hPa | 0 mm | - | 40 W/m² | - |
| 1787700033 | 13.33° C | 97% | 1018.9 hPa | 0 mm | - | 28 W/m² | - |
| 1787699431 | 13.33° C | 97% | 1018.9 hPa | 0.51 mm | - | 13 W/m² | - |
| 1787698828 | 13.33° C | 97% | 1019 hPa | 1.02 mm | - | 6 W/m² | - |
| 1787698225 | 13.33° C | 96% | 1019.1 hPa | 3.56 mm | - | 4 W/m² | - |
| 1787697623 | 13.33° C | 96% | 1019.1 hPa | 3.81 mm | - | 2 W/m² | - |
| 1787697020 | 13.33° C | 96% | 1019.1 hPa | 4.06 mm | - | 0 W/m² | - |
| 1787696418 | 13.33° C | 96% | 1019.2 hPa | 4.06 mm | - | 0 W/m² | - |
| 1787695835 | 13.33° C | 96% | 1019 hPa | 3.56 mm | - | 0 W/m² | - |
| 1787695233 | 13.33° C | 96% | 1019 hPa | 3.3 mm | - | 0 W/m² | - |
| 1787694630 | 13.33° C | 96% | 1018.9 hPa | 0.51 mm | - | 0 W/m² | - |
| 1787694027 | 13.33° C | 96% | 1018.8 hPa | 0.25 mm | - | 0 W/m² | - |
| 1787693424 | 13.33° C | 95% | 1018.5 hPa | 0 mm | - | 0 W/m² | - |
| 1787692822 | 13.33° C | 95% | 1018.5 hPa | 0 mm | - | 0 W/m² | - |
| 1787692219 | 13.33° C | 95% | 1018.5 hPa | 0 mm | - | 0 W/m² | - |
| 1787691617 | 13.33° C | 95% | 1018.4 hPa | 0 mm | - | 0 W/m² | - |
| 1787691034 | 13.89° C | 95% | 1018.3 hPa | 0 mm | - | 0 W/m² | - |
| 1787690432 | 13.89° C | 95% | 1018.3 hPa | 0 mm | - | 0 W/m² | - |
| 1787689829 | 13.89° C | 95% | 1018.3 hPa | 0 mm | - | 0 W/m² | - |
* Rain latest hour (hover to see other rain measurements)
** Current wind speed in m/s (hover to see current wind gust speed)